Houma, LA

8:40 AM CST on January 22, 2018 (GMT -0600)
Houma-terrebonne

Weather History for KHUM - July, 2013

Change the Weather History Date:

Monday, July 1, 2013

  Actual Average Record
Temperature  
Mean Temperature 80 °F -  
Max Temperature 89 °F 90 °F 98 °F (1954)
Min Temperature 71 °F 72 °F 67 °F (1992)
Cooling Degree Days 15    
Growing Degree Days 30 (Base 50)    
Moisture  
Dew Point 64 °F    
Average Humidity 65    
Maximum Humidity 100    
Minimum Humidity 31    
Precipitation  
Precipitation 0.00 in - - ()
Sea Level Pressure  
Sea Level Pressure 29.86 in    
Wind  
Wind Speed 5 mph (NW)    
Max Wind Speed 12 mph    
Max Gust Speed -    
Visibility 9 miles    
Events      
Averages and records for this station are not official NWS values.
T = Trace of Precipitation, MM = Missing Value Source: NWS Daily Summary

Daily Weather History Graph

Daily Weather History Graph

Search for Another Location

Airport or City:

Trip Planner

Search our weather history database for the weather conditions in past years. The results will help you decide how hot, cold, wet, or windy it might be!

Date:

Astronomy

Jul. 01, 2013 Rise Set
Actual Time 6:06 AM CDT 8:06 PM CDT
Civil Twilight 5:39 AM CDT 8:33 PM CDT
Nautical Twilight 5:06 AM CDT 9:06 PM CDT
Astronomical Twilight 4:30 AM CDT 9:42 PM CDT
Moon 1:19 AM CDT (7/1) 2:36 PM CDT (7/1)
Length of Visible Light 14h 54m
Length of Day
14h 00m
Waning Crescent, 35% of the Moon is Illuminated
Jul 1
Waning Crescent
Jul 8
New
Jul 15
First Quarter
Jul 22
Full
Jul 29
Last Quarter

Hourly Weather History & Observations

Time (CDT) Temp. Heat Index Dew Point Humidity Pressure Visibility Wind Dir Wind Speed Gust Speed Precip Events Conditions
12:15 AM 73.9 °F - 64.4 °F 72% 29.81 in 7.0 mi WNW 4.6 mph - N/A   Clear
12:35 AM 74.7 °F - 63.1 °F 67% 29.81 in 10.0 mi NW 4.6 mph - N/A   Clear
12:55 AM 73.4 °F - 63.5 °F 71% 29.82 in 10.0 mi NW 4.6 mph - N/A   Clear
1:15 AM 73.8 °F - 63.1 °F 69% 29.81 in 10.0 mi NNW 4.6 mph - N/A   Clear
1:35 AM 72.0 °F - 63.5 °F 75% 29.81 in 10.0 mi Calm Calm - N/A   Clear
1:55 AM 72.7 °F - 63.7 °F 73% 29.81 in 10.0 mi North 3.5 mph - N/A   Clear
2:15 AM 73.0 °F - 63.5 °F 72% 29.82 in 10.0 mi North 3.5 mph - N/A   Clear
2:35 AM 73.2 °F - 64.0 °F 73% 29.82 in 10.0 mi North 4.6 mph - N/A   Clear
2:55 AM 73.0 °F - 64.4 °F 74% 29.82 in 10.0 mi North 4.6 mph - N/A   Clear
3:15 AM 72.1 °F - 64.8 °F 78% 29.82 in 7.0 mi NNW 3.5 mph - N/A   Clear
3:35 AM 71.2 °F - 64.8 °F 80% 29.82 in 10.0 mi Calm Calm - N/A   Scattered Clouds
3:55 AM 71.8 °F - 64.8 °F 78% 29.83 in 10.0 mi Calm Calm - N/A   Scattered Clouds
4:15 AM 71.8 °F - 65.3 °F 80% 29.83 in 10.0 mi Calm Calm - N/A   Mostly Cloudy
4:35 AM 72.0 °F - 65.3 °F 79% 29.83 in 10.0 mi Calm Calm - N/A   Scattered Clouds
4:55 AM 72.3 °F - 65.5 °F 79% 29.83 in 10.0 mi NNW 3.5 mph - N/A   Mostly Cloudy
5:15 AM 72.5 °F - 65.5 °F 79% 29.84 in 10.0 mi North 3.5 mph - N/A   Overcast
5:35 AM 73.0 °F - 65.3 °F 77% 29.84 in 10.0 mi NNW 6.9 mph - N/A   Mostly Cloudy
5:51 AM 73.4 °F - 64.4 °F 73% 29.85 in 7.0 mi NNW 10.4 mph - N/A   Partly Cloudy
5:55 AM 73.2 °F - 65.3 °F 76% 29.84 in 10.0 mi NNW 4.6 mph - N/A   Scattered Clouds
6:55 AM 73.4 °F - 66.2 °F 78% 29.87 in 7.0 mi NNW 10.4 mph - N/A   Partly Cloudy
7:48 AM 77.0 °F - 66.2 °F 69% 29.88 in 7.0 mi NNW 10.4 mph - N/A   Clear
8:48 AM 80.6 °F 82.7 °F 66.2 °F 61% 29.89 in 7.0 mi NNW 10.4 mph - N/A   Clear
9:48 AM 82.4 °F 96.1 °F 82.4 °F 100% 29.90 in 7.0 mi NNE 9.2 mph - N/A   Clear
10:48 AM 82.4 °F 83.9 °F 64.4 °F 54% 29.90 in 7.0 mi NNE 5.8 mph - N/A   Clear
11:54 AM 86.0 °F 86.6 °F 62.6 °F 45% 29.90 in 7.0 mi West 5.8 mph - N/A   Clear
12:54 PM 87.8 °F 86.5 °F 57.2 °F 35% 29.89 in 7.0 mi NW 10.4 mph - N/A   Scattered Clouds
1:50 PM 89.6 °F 87.7 °F 55.4 °F 31% 29.87 in 7.0 mi NW 9.2 mph - N/A   Scattered Clouds
2:50 PM 87.8 °F 86.5 °F 57.2 °F 35% 29.86 in 7.0 mi WNW 9.2 mph - N/A   Scattered Clouds
3:50 PM 87.8 °F 86.1 °F 55.4 °F 33% 29.86 in 7.0 mi NW 11.5 mph - N/A   Scattered Clouds
4:50 PM 87.8 °F 86.5 °F 57.2 °F 35% 29.85 in 7.0 mi NW 11.5 mph - N/A   Scattered Clouds
5:55 PM 84.2 °F 83.8 °F 59.0 °F 42% 29.84 in 7.0 mi NW 11.5 mph - N/A   Scattered Clouds
6:55 PM 84.2 °F 83.8 °F 59.0 °F 42% 29.87 in 7.0 mi NW 9.2 mph - N/A   Scattered Clouds
7:15 PM 84.6 °F 84.4 °F 59.5 °F 43% 29.87 in 10.0 mi WNW 8.1 mph - N/A   Clear
7:35 PM 82.8 °F 83.1 °F 60.6 °F 47% 29.88 in 10.0 mi NW 3.5 mph - N/A   Clear
7:55 PM 80.8 °F 82.0 °F 62.6 °F 54% 29.89 in 10.0 mi NW 3.5 mph - N/A   Clear
8:15 PM 79.7 °F - 63.7 °F 58% 29.89 in 10.0 mi Calm Calm - N/A   Clear
8:35 PM 78.3 °F - 64.9 °F 63% 29.89 in 10.0 mi Calm Calm - N/A   Clear
8:55 PM 78.3 °F - 65.1 °F 64% 29.89 in 10.0 mi WNW 3.5 mph - N/A   Clear
9:15 PM 78.8 °F - 65.3 °F 63% 29.90 in 7.0 mi WNW 3.5 mph - N/A   Clear
9:35 PM 77.0 °F - 65.5 °F 67% 29.90 in 7.0 mi NW 3.5 mph - N/A   Clear
9:55 PM 77.0 °F - 65.5 °F 67% 29.90 in 5.0 mi NW 3.5 mph - N/A   Haze
10:15 PM 76.3 °F - 66.2 °F 71% 29.91 in 10.0 mi NW 3.5 mph - N/A   Clear
10:35 PM 76.1 °F - 66.4 °F 72% 29.91 in 7.0 mi NW 4.6 mph - N/A   Clear
10:55 PM 75.6 °F - 66.0 °F 72% 29.91 in 10.0 mi NW 3.5 mph - N/A   Clear
11:15 PM 75.9 °F - 65.7 °F 70% 29.92 in 7.0 mi NW 3.5 mph - N/A   Clear
11:35 PM 75.7 °F - 65.5 °F 70% 29.92 in 10.0 mi NW 3.5 mph - N/A   Clear
11:55 PM 76.1 °F - 65.7 °F 70% 29.92 in 10.0 mi NW 4.6 mph - N/A   Clear